M-CUBED & EXP-1 PRIME (37855 NORAD) Tracking and Keplerian Element Data

This shows tracking and keplerian element data for the satellite.

Feedback or suggestion? Click here.




ElementValue
Catalog37855
NameM-CUBED & EXP-1 PRIME
Epoch Orbit69151
Epoch Day159.44359494
Epoch Year2024
RAAN340.288
Inclination101.6842
Eccentricity0.0032492
Argument of Perigee347.2846
Mean Anonmoly12.7584
Mean Motion15.83882061
Decay Rate0.00409829
L11 37855U 11061F 24159.44359494 .00409829 63072-4 17839-2 0 9994
L22 37855 101.6842 340.2880 0032492 347.2846 12.7584 15.83882061691512



Live tracking and technical data element details for M-CUBED & EXP-1 PRIME (NORAD 37855). M-CUBED & EXP-1 PRIME can be tracked NOW for your location showing map with azimuth and elevation plus other details from your city location.







IsCatalogInMostPopularTable: catalog: 37855, numindb: 440
Update: records affected: 1



GetName: 37855 M-CUBED & EXP-1 PRIME

Hit Count: updated at: Fri, 24 Jan 2025 22:04:55 GMT